カタログに戻る

ATLAS 5 CENTAUR DEB

運用中HEO
NORAD 43973·DEBRIS·🇺🇸 United States

打ち上げ Sep 17, 2014 から Cape Canaveral Space Force Station

Loading…

次のパス (今後24時間)

TLE

経年Source: Space-Track

元期: Sep 4, 2026, 19:10 UTC

1 43973U 14055AC  26247.79909951 -.00000201  00000-0  00000-0 0  9995
2 43973  21.0563  99.3388 5012150 251.4193  49.4176  1.92502075 56399

AllMySatでATLAS 5 CENTAUR DEBをリアルタイム追跡

Download on the App Store